Location: All Nations United Methodist Church
(33.0215°N, 96.7483°W)
Time: 14:58:23
(UTC+00:00)

Cosmos 2237 Rocket - Pass Details

Date: 24 January 2021
Orbit: 833 x 851 km, 71.0° (Epoch: 07 March)

Event Time Altitude Azimuth Distance (km) Brightness Sun altitude
Exits shadow 12:52:44 - 284° (WNW) 2,557 4.0 -7.5°
Reaches altitude 10° 12:53:36 10° 293° (WNW) 2,464 3.9 -7.4°
Maximum altitude 12:54:56 11° 307° (NW) 2,410 4.0 -7.1°
Drops below altitude 10° 12:56:17 10° 321° (NW) 2,470 4.1 -6.8°
Sets 13:01:09 0° 357° (N) 3,415 5.1 -5.9°
